Home   Weather   West Covina   Past weeks

Flag for USA Past Weather in West Covina, California, USA — Yesterday and Last 2 Weeks

Now
61 °F

Passing clouds.


Feels Like: 61 °F
Forecast: 40 / 59 °F
Wind: 9 mph from Southwest

Location: Fullerton Municipal Airport

Current Time: Feb 22, 2017 at 6:41:47 pm

Latest Report: Feb 22, 2017 at 5:53 pm


Visibility: 10 mi

Pressure: 30.01 "Hg

Humidity: 58%

Dew Point: 46 °F

Location of West CovinaLocation

Past Weather in West Covina — Graph

°F

West Covina Temperature Yesterday

Maximum temperature yesterday: 70 °F (at 12:53 pm)
Minimum temperature yesterday: 58 °F (at 4:53 am)
Average temperature yesterday: 63 °F

High & Low Weather Summary for the Past Weeks

 TemperatureHumidityPressure
High82 °F (Feb 15, 1:53 pm)100% (Feb 7, 10:05 pm)30.33 "Hg (Feb 7, 10:05 pm)
Low48 °F (Feb 12, 5:53 am)20% (Feb 15, 12:53 pm)29.45 "Hg (Feb 17, 4:53 pm)
Average60 °F82%30.00 "Hg
* Reported Feb 7 4:53 pm — Feb 22 4:53 pm, West Covina, Weather by CustomWeather, © 2017

Note: Actual official high and low records may vary slightly from our data, if they occured in-between our weather recording intervals... More about our weather records

Advertising

West Covina Weather History for the Previous 24 Hours

Scroll right to see more
 ConditionsComfort  
Time TempWeatherWind HumidityBarometerVisibility
4:53 pm
Wed, Feb 22
62 °FSunny.9 mph50%30.02 "Hg10 mi
3:53 pm63 °FSunny.6 mph48%30.01 "Hg10 mi
2:53 pm63 °FPassing clouds.7 mph43%30.03 "Hg10 mi
1:53 pm65 °FPassing clouds.9 mph42%30.03 "Hg10 mi
12:53 pm66 °FPassing clouds.6 mph47%30.06 "Hg10 mi
11:53 am65 °FPassing clouds.8 mph44%30.09 "Hg10 mi
10:53 am65 °FBroken clouds.5 mph54%30.11 "Hg10 mi
10:00 am61 °FPassing clouds.5 mph67%30.13 "Hg10 mi
9:08 am58 °FPartly sunny.No wind78%30.14 "Hg10 mi
8:22 am59 °FPartly sunny.No wind81%30.14 "Hg10 mi
7:53 am57 °FSunny.No wind87%30.14 "Hg9 mi
7:28 am57 °FScattered clouds.No wind87%30.13 "Hg9 mi
6:53 am56 °FLow clouds.No wind90%30.12 "Hg9 mi
5:53 am55 °FPassing clouds.No wind96%30.12 "Hg10 mi
4:53 am57 °FLow clouds.No wind93%30.13 "Hg10 mi
3:53 am57 °FLow clouds.No wind93%30.14 "Hg9 mi
2:53 am57 °FLow clouds.3 mph93%30.14 "Hg8 mi
1:53 am58 °FLow clouds.No wind93%30.16 "Hg7 mi
1:17 am58 °FLow clouds.No wind93%30.18 "Hg8 mi
12:53 am59 °FLow clouds.5 mph90%30.18 "Hg7 mi
12:20 am59 °FMostly cloudy.6 mph93%30.20 "Hg8 mi
12:06 am59 °FPartly cloudy.5 mph93%30.20 "Hg10 mi
10:53 pm
Tue, Feb 21
61 °FOvercast.5 mph83%30.19 "Hg10 mi
9:53 pm61 °FOvercast.5 mph83%30.21 "Hg10 mi
8:53 pm61 °FPassing clouds.No wind78%30.21 "Hg10 mi
7:53 pm63 °FOvercast.5 mph73%30.21 "Hg10 mi
6:53 pm63 °FMostly cloudy.3 mph73%30.21 "Hg10 mi
Weather by CustomWeather, © 2017

See weather overviewHow to use our weather pages